TimeEDT,TemperatureF,Dew PointF,Humidity,Sea Level PressureIn,VisibilityMPH,Wind Direction,Wind SpeedMPH,Gust SpeedMPH,PrecipitationIn,Events,Conditions,WindDirDegrees,DateUTC
12:53 AM,71.1,61.0,70,29.84,10.0,SW,5.8,-,N/A,,Clear,220,2013-05-21 04:53:00
1:53 AM,72.0,62.1,71,29.83,10.0,SSW,9.2,-,N/A,,Clear,200,2013-05-21 05:53:00
2:53 AM,73.0,63.0,71,29.82,10.0,SW,10.4,-,N/A,,Clear,220,2013-05-21 06:53:00
3:53 AM,73.0,64.0,73,29.80,10.0,SW,11.5,-,0.00,,Clear,220,2013-05-21 07:53:00
4:53 AM,71.1,64.0,78,29.80,8.0,SSW,9.2,-,N/A,,Scattered Clouds,210,2013-05-21 08:53:00
5:53 AM,71.1,64.0,78,29.81,9.0,SSW,6.9,-,N/A,,Mostly Cloudy,210,2013-05-21 09:53:00
6:53 AM,71.1,64.0,78,29.81,8.0,Calm,Calm,-,N/A,,Mostly Cloudy,0,2013-05-21 10:53:00
7:53 AM,72.0,64.9,78,29.78,8.0,South,5.8,-,N/A,,Clear,180,2013-05-21 11:53:00
8:53 AM,73.9,64.9,73,29.81,10.0,WSW,10.4,-,N/A,,Clear,240,2013-05-21 12:53:00
9:53 AM,77.0,59.0,54,29.83,10.0,West,15.0,25.3,N/A,,Clear,260,2013-05-21 13:53:00
10:53 AM,78.1,57.0,48,29.83,10.0,West,12.7,19.6,N/A,,Partly Cloudy,270,2013-05-21 14:53:00
11:53 AM,79.0,57.0,47,29.80,10.0,West,12.7,17.3,N/A,,Scattered Clouds,280,2013-05-21 15:53:00
12:53 PM,82.0,55.9,41,29.80,10.0,WSW,18.4,27.6,N/A,,Partly Cloudy,240,2013-05-21 16:53:00
1:53 PM,79.0,55.9,45,29.79,10.0,WSW,13.8,23.0,N/A,,Overcast,240,2013-05-21 17:53:00
2:53 PM,84.0,55.9,38,29.76,10.0,West,10.4,19.6,N/A,,Clear,260,2013-05-21 18:53:00
3:53 PM,84.0,55.9,38,29.76,10.0,West,15.0,26.5,N/A,,Clear,260,2013-05-21 19:53:00
4:53 PM,84.9,57.0,38,29.75,10.0,WSW,12.7,18.4,N/A,,Partly Cloudy,250,2013-05-21 20:53:00
5:53 PM,84.9,57.0,38,29.74,10.0,WSW,12.7,18.4,N/A,,Scattered Clouds,250,2013-05-21 21:53:00
6:53 PM,84.0,57.0,40,29.73,10.0,West,12.7,-,N/A,,Clear,260,2013-05-21 22:53:00
7:53 PM,82.9,55.9,39,29.73,9.0,West,8.1,-,N/A,,Clear,260,2013-05-21 23:53:00
8:53 PM,80.1,55.9,43,29.74,10.0,West,5.8,-,N/A,,Mostly Cloudy,260,2013-05-22 00:53:00
9:53 PM,75.0,57.9,55,29.75,10.0,NNW,4.6,-,N/A,,Mostly Cloudy,330,2013-05-22 01:53:00
10:53 PM,71.1,59.0,66,29.76,10.0,Calm,Calm,-,N/A,,Clear,0,2013-05-22 02:53:00
11:53 PM,68.0,57.9,70,29.77,10.0,Calm,Calm,-,N/A,,Clear,0,2013-05-22 03:53:00